Regional Weather Roundup
Issued by NWS

Home | Current Version | Previous Version | Text Only | Print | Product List | Glossary On
Versions: 1 2 3 4 5 6 7 8 9 10 11 12 13 14 15 16 17 18 19 20 21 22 23 24 25 26 27
000
ASUS44 KBMX 241210
RWRAL

ALABAMA REGIONAL WEATHER ROUNDUP
NATIONAL WEATHER SERVICE BIRMINGHAM AL
700 AM CDT FRI OCT 24 2014

NOTE: "FAIR" INDICATES FEW OR NO CLOUDS BELOW 12,000 FEET
WITH NO SIGNIFICANT WEATHER AND/OR OBSTRUCTIONS TO VISIBILITY.

THE REMARK "TC" DENOTES TEMPERATURE IN DEGREES CELSIUS.

ALZ001>011-014-016>018-020-241300-
NORTH ALABAMA

CITY           SKY/WX    TMP DP  RH WIND       PRES   REMARKS
MUSCLE SHOALS  PTCLDY    45  43  93 CALM      30.13S FOG
6HR MIN TEMP:  44; 6HR MAX TEMP:  53;

HUNTSVILLE     MOCLDY    49  44  83 NW7       30.11R
6HR MIN TEMP:  48; 6HR MAX TEMP:  54;

DECATUR        MOCLDY    44  42  93 N3        30.12S
6HR MIN TEMP:  44; 6HR MAX TEMP:  53;

HALEYVILLE     FAIR      44  43  97 CALM      30.13R
6HR MIN TEMP:  44; 6HR MAX TEMP:  53;

GADSDEN        CLOUDY    46  43  87 CALM      30.09S
6HR MIN TEMP:  46; 6HR MAX TEMP:  52;

$$

ALZ012-013-022-023-030>036-040>044-241300-
WEST CENTRAL ALABAMA

CITY           SKY/WX    TMP DP  RH WIND       PRES   REMARKS
TUSCALOOSA     CLOUDY    51  48  89 CALM      30.10S
6HR MIN TEMP:  50; 6HR MAX TEMP:  55;

$$

ALZ015-024>027-033>036-040>044-241300-
CENTRAL ALABAMA

CITY           SKY/WX    TMP DP  RH WIND       PRES   REMARKS
BIRMINGHAM     CLOUDY    53  46  77 W7        30.11R
6HR MIN TEMP:  51; 6HR MAX TEMP:  53;

MONTGOMERY     PTCLDY    46  43  89 CALM      30.08S
6HR MIN TEMP:  44; 6HR MAX TEMP:  52;

SHELBY CO ARPT CLOUDY    53  48  83 CALM      30.09R
6HR MIN TEMP:  53; 6HR MAX TEMP:  56;

MAXWELL AFB    FOG       46  46 100 CALM      30.07S VSB 1/2
6HR MIN TEMP:  45; 6HR MAX TEMP:  51;

GREENVILLE     FAIR      49  45  86 CALM      30.07S
6HR MIN TEMP:  48; 6HR MAX TEMP:  55;

$$

ALZ019-021-028-029-037-038-045>048-241300-
EAST CENTRAL ALABAMA

CITY           SKY/WX    TMP DP  RH WIND       PRES   REMARKS
ANNISTON       MOCLDY    46  44  93 CALM      30.09R
6HR MIN TEMP:  46; 6HR MAX TEMP:  50;

ALEXANDER CITY CLOUDY    49  47  95 CALM      30.07S
6HR MIN TEMP:  49; 6HR MAX TEMP:  51;

AUBURN         MOCLDY    46  43  87 N6        30.09S
6HR MIN TEMP:  46; 6HR MAX TEMP:  52;

$$

ALZ051>064-241300-
SOUTHWEST ALABAMA

CITY           SKY/WX    TMP DP  RH WIND       PRES   REMARKS
MOBILE         MOCLDY    51  48  89 CALM      30.09R
6HR MIN TEMP:  50; 6HR MAX TEMP:  57;

BROOKLEY FIELD CLEAR     51  48  89 N5        30.10R
6HR MIN TEMP:  50; 6HR MAX TEMP:  58;

EVERGREEN      CLEAR     47  45  93 CALM      30.08S FOG
6HR MIN TEMP:  47; 6HR MAX TEMP:  57;

$$

ALZ049-050-065>069-241300-
SOUTHEAST ALABAMA

CITY           SKY/WX    TMP DP  RH WIND       PRES   REMARKS
DOTHAN         PTCLDY    49  46  90 N3        30.09R
6HR MIN TEMP:  49; 6HR MAX TEMP:  55;

OZARK          PTCLDY    51  46  84 N3        30.06R
6HR MIN TEMP:  51; 6HR MAX TEMP:  56;

TROY           PTCLDY    46  43  89 CALM      30.08S
6HR MIN TEMP:  43; 6HR MAX TEMP:  51;

EUFAULA        FAIR      43  41  93 CALM      30.07R
6HR MIN TEMP:  43; 6HR MAX TEMP:  51; 6HR PCP:  0.01;

$$



USA.gov is the U.S. government's official web portal to all federal, state and local government web resources and services.